{"data":{"norad_id":65735,"epoch":"2026-09-20T23:08:27.273984Z","epoch_age_seconds":68417,"freshness":"FRESH","line1":"1 65735U 25216B   26263.96420456  .00020847  00000+0  62625-3 0  9991","line2":"2 65735  53.1579 143.5482 0000780  70.3926 289.7161 15.34408396 56443","mean_motion":15.34408396,"eccentricity":7.8e-5,"inclination_deg":53.1579,"raan_deg":143.5482,"arg_perigee_deg":70.3926,"mean_anomaly_deg":289.7161,"bstar":0.00062625,"rev_number":5644,"period_min":93.847244563696,"perigee_km":462.14470204724,"apogee_km":463.2118692318,"semimajor_km":6840.8152856395,"source":"CELESTRAK","updated_at":"2026-09-21T09:00:35.691415Z"}}